,,PA_Meas_PMT16A,,PR_Meas_QMR101_102,,RH_Meas_QMH101,,SR_Meas_QMS101,,TA_Meas_QMH101,,GenWind,,GenWind,
time,status,PA,status,PR,status,RH,status,SR,status,TA,status,DirAvg,status,SpdAvg,
2014-01-24, 00:00:04,VALID,919.217,VALID,0,VALID,91.7326,VALID,0,VALID,19.3728,VALID,143,VALID,1.43164,
2014-01-24, 00:01:04,VALID,919.17,VALID,0,VALID,91.7478,VALID,0,VALID,19.3728,VALID,138,VALID,1.18398,
2014-01-24, 00:02:04,VALID,919.205,VALID,0,VALID,91.8393,VALID,0,VALID,19.3518,VALID,140,VALID,1.97383,
2014-01-24, 00:03:04,VALID,919.17,VALID,0,VALID,91.9079,VALID,0,VALID,19.3713,VALID,154,VALID,1.78633,
2014-01-24, 00:04:04,VALID,919.159,VALID,0,VALID,91.9384,VALID,0,VALID,19.3937,VALID,136,VALID,1.62773,
2014-01-24, 00:05:04,VALID,919.139,VALID,0,VALID,91.9536,VALID,0,VALID,19.3923,VALID,145,VALID,1.46016,
2014-01-24, 00:06:04,VALID,919.116,VALID,0,VALID,91.8317,VALID,0,VALID,19.4118,VALID,134,VALID,2.12852,
2014-01-24, 00:07:04,VALID,919.14,VALID,0,VALID,91.603,VALID,0,VALID,19.4493,VALID,150,VALID,1.65195,
2014-01-24, 00:08:04,VALID,919.139,VALID,0,VALID,91.3285,VALID,0,VALID,19.5108,VALID,135,VALID,2.08867,
2014-01-24, 00:09:04,VALID,919.144,VALID,0,VALID,91.0617,VALID,0,VALID,19.5078,VALID,122,VALID,1.20703,
2014-01-24, 00:10:04,VALID,919.114,VALID,0,VALID,90.9397,VALID,0,VALID,19.5498,VALID,135,VALID,1.30078,
2014-01-24, 00:11:04,VALID,919.13,VALID,0,VALID,90.9702,VALID,0,VALID,19.4883,VALID,133,VALID,1.54414,
2014-01-24, 00:12:04,VALID,919.084,VALID,0,VALID,91.1379,VALID,0,VALID,19.5078,VALID,120,VALID,1.08125,
2014-01-24, 00:13:04,VALID,919.091,VALID,0,VALID,91.1684,VALID,0,VALID,19.4688,VALID,91,VALID,1.0793,
2014-01-24, 00:14:04,VALID,919.119,VALID,0,VALID,91.3057,VALID,0,VALID,19.4688,VALID,116,VALID,1.41797,
2014-01-24, 00:15:04,VALID,919.1,VALID,0,VALID,91.4505,VALID,0,VALID,19.4718,VALID,102,VALID,1.90586,
2014-01-24, 00:16:04,VALID,919.131,VALID,0,VALID,91.5953,VALID,0.107441,VALID,19.4508,VALID,129,VALID,1.5668,
2014-01-24, 00:17:04,VALID,919.111,VALID,0,VALID,91.7631,VALID,0,VALID,19.4508,VALID,118,VALID,2.44023,
2014-01-24, 00:18:04,VALID,919.11,VALID,0,VALID,91.6258,VALID,0,VALID,19.4688,VALID,122,VALID,1.61914,
2014-01-24, 00:19:04,VALID,919.066,VALID,0,VALID,91.4581,VALID,0,VALID,19.4493,VALID,105,VALID,0.992188,
2014-01-24, 00:20:04,VALID,919.064,VALID,0,VALID,91.4734,VALID,0,VALID,19.4493,VALID,137,VALID,1.03555,
2014-01-24, 00:21:04,VALID,918.98,VALID,0,VALID,91.542,VALID,0,VALID,19.4718,VALID,141,VALID,1.49766,
2014-01-24, 00:22:04,VALID,918.997,VALID,0,VALID,91.6792,VALID,0,VALID,19.4103,VALID,133,VALID,1.71016,
2014-01-24, 00:23:04,VALID,918.981,VALID,0,VALID,91.7478,VALID,0,VALID,19.4103,VALID,117,VALID,1.59375,
2014-01-24, 00:24:04,VALID,918.944,VALID,0,VALID,91.7402,VALID,0,VALID,19.3923,VALID,116,VALID,1.06133,
2014-01-24, 00:25:04,VALID,918.96,VALID,0,VALID,91.7859,VALID,0,VALID,19.3323,VALID,126,VALID,1.4543,
2014-01-24, 00:26:04,VALID,918.909,VALID,0,VALID,92.007,VALID,0,VALID,19.3533,VALID,128,VALID,1.81172,
2014-01-24, 00:27:04,VALID,918.889,VALID,0,VALID,92.1137,VALID,0,VALID,19.3338,VALID,135,VALID,1.06719,
2014-01-24, 00:28:04,VALID,918.882,VALID,0,VALID,92.1061,VALID,0,VALID,19.3518,VALID,108,VALID,1.33086,
2014-01-24, 00:29:04,VALID,918.843,VALID,0,VALID,91.9536,VALID,0,VALID,19.3338,VALID,112,VALID,0.694922,
2014-01-24, 00:30:04,VALID,918.848,VALID,0,VALID,92.0756,VALID,0.107441,VALID,19.3143,VALID,124,VALID,0.867188,
2014-01-24, 00:31:04,VALID,918.858,VALID,0,VALID,92.2357,VALID,0,VALID,19.2948,VALID,136,VALID,1.88086,
2014-01-24, 00:32:04,VALID,918.849,VALID,0,VALID,92.2662,VALID,0,VALID,19.2753,VALID,119,VALID,1.06445,
2014-01-24, 00:33:04,VALID,918.847,VALID,0,VALID,92.3348,VALID,0,VALID,19.2543,VALID,116,VALID,0.923437,
2014-01-24, 00:34:04,VALID,918.85,VALID,0,VALID,92.3272,VALID,0,VALID,19.2348,VALID,125,VALID,0.841797,
2014-01-24, 00:35:04,VALID,918.811,VALID,0,VALID,92.2662,VALID,0,VALID,19.1958,VALID,101,VALID,0.600391,
2014-01-24, 00:36:04,VALID,918.801,VALID,0,VALID,92.3424,VALID,0,VALID,19.1778,VALID,102,VALID,0.719922,
2014-01-24, 00:37:04,VALID,918.773,VALID,0,VALID,92.4415,VALID,0.107441,VALID,19.1178,VALID,102,VALID,1.10234,
2014-01-24, 00:38:04,VALID,918.733,VALID,0,VALID,92.5483,VALID,0,VALID,19.0593,VALID,102,VALID,0.841797,
2014-01-24, 00:39:04,VALID,918.721,VALID,0,VALID,92.9599,VALID,0,VALID,19.0803,VALID,117,VALID,1.43945,
2014-01-24, 00:40:04,VALID,918.695,VALID,0,VALID,93.1886,VALID,0.107441,VALID,19.0788,VALID,121,VALID,1.17188,
2014-01-24, 00:41:04,VALID,918.705,VALID,0,VALID,93.1505,VALID,0,VALID,19.0788,VALID,111,VALID,0.863281,
2014-01-24, 00:42:04,VALID,918.701,VALID,0,VALID,93.1886,VALID,0.107441,VALID,19.1193,VALID,124,VALID,1.21367,
2014-01-24, 00:43:04,VALID,918.669,VALID,0,VALID,93.0819,VALID,0,VALID,19.0998,VALID,137,VALID,0.713672,
2014-01-24, 00:44:04,VALID,918.666,VALID,0,VALID,93.0362,VALID,0,VALID,19.0788,VALID,137,VALID,0.549609,
2014-01-24, 00:45:04,VALID,918.635,VALID,0,VALID,92.9599,VALID,0,VALID,19.0803,VALID,137,VALID,0.378516,
2014-01-24, 00:46:04,VALID,918.597,VALID,0,VALID,92.9752,VALID,0,VALID,19.0608,VALID,137,VALID,0.441797,
2014-01-24, 00:47:04,VALID,918.622,VALID,0,VALID,92.9066,VALID,0,VALID,19.0203,VALID,139,VALID,0.642578,
2014-01-24, 00:48:04,VALID,918.624,VALID,0,VALID,92.9294,VALID,0,VALID,19.0008,VALID,139,VALID,0.715625,
2014-01-24, 00:49:04,VALID,918.605,VALID,0,VALID,92.9981,VALID,0.107441,VALID,19.0023,VALID,138,VALID,0.741797,
2014-01-24, 00:50:04,VALID,918.593,VALID,0,VALID,93.0972,VALID,0,VALID,19.0023,VALID,138,VALID,0.704687,
2014-01-24, 00:51:04,VALID,918.584,VALID,0,VALID,93.1276,VALID,0,VALID,19.0008,VALID,144,VALID,0.623047,
2014-01-24, 00:52:04,VALID,918.589,VALID,0,VALID,93.0514,VALID,0,VALID,18.9814,VALID,144,VALID,0.803906,
2014-01-24, 00:53:04,VALID,918.585,VALID,0,VALID,93.0514,VALID,0,VALID,19.0037,VALID,144,VALID,0.782812,
2014-01-24, 00:54:04,VALID,918.559,VALID,0,VALID,93.2191,VALID,0,VALID,18.9828,VALID,144,VALID,0.55,
2014-01-24, 00:55:04,VALID,918.539,VALID,0,VALID,93.3564,VALID,0,VALID,18.9619,VALID,144,VALID,0.427344,
2014-01-24, 00:56:04,VALID,918.529,VALID,0,VALID,93.4555,VALID,0,VALID,19.0218,VALID,144,VALID,0.809766,
2014-01-24, 00:57:04,VALID,918.493,VALID,0,VALID,93.4326,VALID,0,VALID,19.0023,VALID,144,VALID,0.992188,
2014-01-24, 00:58:04,VALID,918.474,VALID,0,VALID,93.3335,VALID,0,VALID,18.9828,VALID,144,VALID,0.711719,
2014-01-24, 00:59:04,VALID,918.455,VALID,0,VALID,93.2039,VALID,0,VALID,18.9633,VALID,144,VALID,0.584766,
2014-01-24, 01:00:04,VALID,918.435,VALID,0,VALID,93.3411,VALID,0,VALID,18.9828,VALID,144,VALID,0.698828,
2014-01-24, 01:01:04,VALID,918.422,VALID,0,VALID,93.3868,VALID,0,VALID,18.9842,VALID,154,VALID,0.840234,
2014-01-24, 01:02:04,VALID,918.414,VALID,0,VALID,93.3335,VALID,0,VALID,18.9828,VALID,142,VALID,0.817187,
2014-01-24, 01:03:04,VALID,918.401,VALID,0,VALID,93.2954,VALID,0,VALID,18.9633,VALID,142,VALID,0.632813,
2014-01-24, 01:04:04,VALID,918.391,VALID,0,VALID,93.303,VALID,0,VALID,18.9424,VALID,142,VALID,0.658203,
2014-01-24, 01:05:04,VALID,918.389,VALID,0,VALID,93.2115,VALID,0,VALID,18.9424,VALID,144,VALID,0.545703,
2014-01-24, 01:06:04,VALID,918.353,VALID,0,VALID,93.0743,VALID,0,VALID,18.9034,VALID,144,VALID,0.710547,
2014-01-24, 01:07:04,VALID,918.372,VALID,0,VALID,93.0133,VALID,0,VALID,18.9048,VALID,144,VALID,0.764453,
2014-01-24, 01:08:04,VALID,918.365,VALID,0,VALID,93.0667,VALID,0,VALID,18.9062,VALID,150,VALID,0.764063,
2014-01-24, 01:09:04,VALID,918.362,VALID,0,VALID,93.12,VALID,0,VALID,18.8644,VALID,154,VALID,0.992578,
2014-01-24, 01:10:04,VALID,918.351,VALID,0,VALID,93.1429,VALID,0,VALID,18.8867,VALID,154,VALID,0.598047,
2014-01-24, 01:11:04,VALID,918.338,VALID,0,VALID,93.1963,VALID,0,VALID,18.8658,VALID,154,VALID,0.466797,
2014-01-24, 01:12:04,VALID,918.349,VALID,0,VALID,93.2877,VALID,0,VALID,18.8867,VALID,153,VALID,0.953516,
2014-01-24, 01:13:04,VALID,918.348,VALID,0,VALID,93.4478,VALID,0,VALID,18.8853,VALID,153,VALID,0.506641,
2014-01-24, 01:14:04,VALID,918.314,VALID,0,VALID,93.3868,VALID,0,VALID,18.8658,VALID,153,VALID,0.512891,
2014-01-24, 01:15:04,VALID,918.328,VALID,0,VALID,93.5851,VALID,0,VALID,18.8658,VALID,153,VALID,0.969922,
2014-01-24, 01:16:04,VALID,918.303,VALID,0,VALID,93.7147,VALID,0,VALID,18.9048,VALID,153,VALID,1.02891,
2014-01-24, 01:17:04,VALID,918.324,VALID,0,VALID,93.9281,VALID,0,VALID,18.9048,VALID,159,VALID,1.33984,
2014-01-24, 01:18:04,VALID,918.317,VALID,0,VALID,94.233,VALID,0,VALID,18.9243,VALID,171,VALID,1.9668,
2014-01-24, 01:19:04,VALID,918.343,VALID,0,VALID,94.3169,VALID,0,VALID,18.9633,VALID,173,VALID,0.947656,
2014-01-24, 01:20:04,VALID,918.357,VALID,0,VALID,94.3626,VALID,0,VALID,18.9438,VALID,190,VALID,0.866797,
2014-01-24, 01:21:04,VALID,918.357,VALID,0,VALID,94.3931,VALID,0,VALID,18.9243,VALID,190,VALID,0.730078,
2014-01-24, 01:22:04,VALID,918.348,VALID,0,VALID,94.3169,VALID,0,VALID,18.9048,VALID,174,VALID,0.861328,
2014-01-24, 01:23:04,VALID,918.35,VALID,0,VALID,94.3931,VALID,0,VALID,18.9048,VALID,168,VALID,1.11758,
2014-01-24, 01:24:04,VALID,918.341,VALID,0,VALID,94.3855,VALID,0,VALID,18.8853,VALID,145,VALID,1.0625,
2014-01-24, 01:25:04,VALID,918.338,VALID,0,VALID,94.4389,VALID,0,VALID,18.8853,VALID,178,VALID,1.20313,
2014-01-24, 01:26:04,VALID,918.311,VALID,0,VALID,94.4465,VALID,0,VALID,18.8853,VALID,169,VALID,0.934766,
2014-01-24, 01:27:04,VALID,918.296,VALID,0,VALID,94.538,VALID,0,VALID,18.9048,VALID,189,VALID,0.571484,
2014-01-24, 01:28:04,VALID,918.25,VALID,0,VALID,94.5304,VALID,0,VALID,18.8853,VALID,173,VALID,0.823047,
2014-01-24, 01:29:04,VALID,918.192,VALID,0,VALID,94.416,VALID,0,VALID,18.8463,VALID,161,VALID,0.853516,
2014-01-24, 01:30:04,VALID,918.152,VALID,0,VALID,94.3855,VALID,0,VALID,18.8073,VALID,154,VALID,0.708203,
2014-01-24, 01:31:04,VALID,918.132,VALID,0,VALID,94.4617,VALID,0,VALID,18.8073,VALID,155,VALID,1.11953,
2014-01-24, 01:32:04,VALID,918.099,VALID,0,VALID,94.4999,VALID,0,VALID,18.8073,VALID,167,VALID,0.748047,
2014-01-24, 01:33:04,VALID,918.057,VALID,0,VALID,94.4922,VALID,0,VALID,18.8073,VALID,148,VALID,1.18086,
2014-01-24, 01:34:04,VALID,918.023,VALID,0,VALID,94.4922,VALID,0,VALID,18.8087,VALID,140,VALID,1.19414,
2014-01-24, 01:35:04,VALID,917.983,VALID,0,VALID,94.5913,VALID,0,VALID,18.8073,VALID,135,VALID,1.43359,
2014-01-24, 01:36:04,VALID,917.996,VALID,0,VALID,94.5532,VALID,0,VALID,18.7279,VALID,140,VALID,1.04531,
2014-01-24, 01:37:04,VALID,917.955,VALID,0,VALID,94.599,VALID,0,VALID,18.7488,VALID,139,VALID,1.19141,
2014-01-24, 01:38:04,VALID,917.952,VALID,0,VALID,94.66,VALID,0,VALID,18.7293,VALID,139,VALID,0.694922,
2014-01-24, 01:39:04,VALID,917.934,VALID,0,VALID,94.6752,VALID,0,VALID,18.7308,VALID,138,VALID,1.09531,
2014-01-24, 01:40:04,VALID,917.919,VALID,0,VALID,94.7591,VALID,0,VALID,18.7098,VALID,152,VALID,0.951172,
2014-01-24, 01:41:04,VALID,917.889,VALID,0,VALID,94.82,VALID,0,VALID,18.7098,VALID,134,VALID,0.640234,
2014-01-24, 01:42:04,VALID,917.861,VALID,0,VALID,94.8277,VALID,0,VALID,18.6694,VALID,136,VALID,0.836328,
2014-01-24, 01:43:04,VALID,917.828,VALID,0,VALID,94.8734,VALID,0,VALID,18.6499,VALID,138,VALID,0.64375,
2014-01-24, 01:44:04,VALID,917.817,VALID,0,VALID,94.8887,VALID,0,VALID,18.6708,VALID,134,VALID,1.12109,
2014-01-24, 01:45:04,VALID,917.847,VALID,0,VALID,94.942,VALID,0,VALID,18.6723,VALID,136,VALID,0.973047,
2014-01-24, 01:46:04,VALID,917.842,VALID,0,VALID,94.9878,VALID,0,VALID,18.6319,VALID,135,VALID,0.472266,
2014-01-24, 01:47:04,VALID,917.84,VALID,0,VALID,95.0564,VALID,0,VALID,18.6513,VALID,167,VALID,1.15469,
2014-01-24, 01:48:04,VALID,917.795,VALID,0,VALID,95.1021,VALID,0,VALID,18.6319,VALID,167,VALID,0.147656,
2014-01-24, 01:49:04,VALID,917.778,VALID,0,VALID,95.0869,VALID,0,VALID,18.6124,VALID,167,VALID,0.477344,
2014-01-24, 01:50:04,VALID,917.779,VALID,0,VALID,95.1174,VALID,0,VALID,18.6124,VALID,167,VALID,0.219531,
2014-01-24, 01:51:04,VALID,917.761,VALID,0,VALID,95.0869,VALID,0,VALID,18.5734,VALID,167,VALID,0.591797,
2014-01-24, 01:52:04,VALID,917.767,VALID,0,VALID,95.1021,VALID,0,VALID,18.5539,VALID,164,VALID,1.03437,
2014-01-24, 01:53:04,VALID,917.766,VALID,0,VALID,95.186,VALID,0,VALID,18.5734,VALID,160,VALID,1.21133,
2014-01-24, 01:54:04,VALID,917.732,VALID,0,VALID,95.2775,VALID,0,VALID,18.5344,VALID,160,VALID,0.716406,
2014-01-24, 01:55:04,VALID,917.752,VALID,0,VALID,95.3461,VALID,0,VALID,18.5344,VALID,163,VALID,0.779688,
2014-01-24, 01:56:04,VALID,917.776,VALID,0,VALID,95.3918,VALID,0,VALID,18.5539,VALID,167,VALID,0.868359,
2014-01-24, 01:57:04,VALID,917.79,VALID,0,VALID,95.4223,VALID,0,VALID,18.5344,VALID,159,VALID,1.15898,
2014-01-24, 01:58:04,VALID,917.748,VALID,0,VALID,95.4833,VALID,0,VALID,18.5553,VALID,167,VALID,1.12227,
2014-01-24, 01:59:04,VALID,917.737,VALID,0,VALID,95.5138,VALID,0,VALID,18.5344,VALID,165,VALID,0.553906,
2014-01-24, 02:00:04,VALID,917.7,VALID,0,VALID,95.5367,VALID,0,VALID,18.5539,VALID,164,VALID,0.992188,
2014-01-24, 02:01:04,VALID,917.67,VALID,0,VALID,95.5671,VALID,0,VALID,18.5539,VALID,140,VALID,0.588281,
2014-01-24, 02:02:04,VALID,917.646,VALID,0,VALID,95.5367,VALID,0,VALID,18.5553,VALID,164,VALID,0.930078,
2014-01-24, 02:03:04,VALID,917.646,VALID,0,VALID,95.5519,VALID,0,VALID,18.5539,VALID,169,VALID,0.552344,
2014-01-24, 02:04:04,VALID,917.663,VALID,0,VALID,95.5367,VALID,0,VALID,18.5553,VALID,181,VALID,1.39102,
2014-01-24, 02:05:04,VALID,917.648,VALID,0,VALID,95.529,VALID,0,VALID,18.5734,VALID,135,VALID,1.06367,
2014-01-24, 02:06:04,VALID,917.581,VALID,0,VALID,95.4833,VALID,0,VALID,18.5929,VALID,143,VALID,0.833594,
2014-01-24, 02:07:04,VALID,917.571,VALID,0,VALID,95.4147,VALID,0,VALID,18.5734,VALID,127,VALID,0.939844,
2014-01-24, 02:08:04,VALID,917.564,VALID,0,VALID,95.2165,VALID,0,VALID,18.5553,VALID,127,VALID,0.682813,
2014-01-24, 02:09:04,VALID,917.566,VALID,0,VALID,95.1555,VALID,0,VALID,18.5163,VALID,127,VALID,0.748438,
2014-01-24, 02:10:04,VALID,917.567,VALID,0,VALID,95.125,VALID,0,VALID,18.4759,VALID,127,VALID,0.510156,
2014-01-24, 02:11:04,VALID,917.567,VALID,0,VALID,95.125,VALID,0,VALID,18.4759,VALID,127,VALID,0.724609,
2014-01-24, 02:12:04,VALID,917.508,VALID,0,VALID,95.0945,VALID,0,VALID,18.4174,VALID,127,VALID,0.680859,
2014-01-24, 02:13:04,VALID,917.517,VALID,0,VALID,95.0716,VALID,0,VALID,18.3979,VALID,127,VALID,0.698828,
2014-01-24, 02:14:04,VALID,917.497,VALID,0,VALID,95.0564,VALID,0,VALID,18.3589,VALID,127,VALID,0.621875,
2014-01-24, 02:15:04,VALID,917.485,VALID,0,VALID,95.0792,VALID,0,VALID,18.3199,VALID,127,VALID,0.45,
2014-01-24, 02:16:04,VALID,917.497,VALID,0,VALID,95.1326,VALID,0,VALID,18.3004,VALID,127,VALID,0.322656,
2014-01-24, 02:17:04,VALID,917.465,VALID,0,VALID,95.1707,VALID,0,VALID,18.3018,VALID,127,VALID,0.173828,
2014-01-24, 02:18:04,VALID,917.495,VALID,0,VALID,95.2088,VALID,0,VALID,18.2615,VALID,127,VALID,0,
2014-01-24, 02:19:04,VALID,917.454,VALID,0,VALID,95.2317,VALID,0,VALID,18.242,VALID,127,VALID,0,
2014-01-24, 02:20:04,VALID,917.489,VALID,0,VALID,95.2927,VALID,0,VALID,18.2225,VALID,127,VALID,0,
2014-01-24, 02:21:04,VALID,917.499,VALID,0,VALID,95.3003,VALID,0,VALID,18.203,VALID,127,VALID,0,
2014-01-24, 02:22:04,VALID,917.499,VALID,0,VALID,95.2927,VALID,0,VALID,18.203,VALID,127,VALID,0,
2014-01-24, 02:23:04,VALID,917.495,VALID,0,VALID,95.3537,VALID,0,VALID,18.203,VALID,131,VALID,0.263672,
2014-01-24, 02:24:04,VALID,917.476,VALID,0,VALID,95.3384,VALID,0,VALID,18.1835,VALID,131,VALID,0.0078125,
2014-01-24, 02:25:04,VALID,917.427,VALID,0,VALID,95.3842,VALID,0,VALID,18.164,VALID,131,VALID,0.215234,
2014-01-24, 02:26:04,VALID,917.413,VALID,0,VALID,95.3918,VALID,0,VALID,18.1459,VALID,131,VALID,0.320313,
2014-01-24, 02:27:04,VALID,917.415,VALID,0,VALID,95.3461,VALID,0,VALID,18.1055,VALID,131,VALID,0.338672,
2014-01-24, 02:28:04,VALID,917.408,VALID,0,VALID,95.3766,VALID,0,VALID,18.0665,VALID,131,VALID,0,
2014-01-24, 02:29:04,VALID,917.405,VALID,0,VALID,95.4985,VALID,0,VALID,18.0665,VALID,131,VALID,0,
2014-01-24, 02:30:04,VALID,917.43,VALID,0,VALID,95.5519,VALID,0,VALID,18.0665,VALID,131,VALID,0,
2014-01-24, 02:31:04,VALID,917.403,VALID,0,VALID,95.5595,VALID,0,VALID,18.0679,VALID,131,VALID,0,
2014-01-24, 02:32:04,VALID,917.406,VALID,0,VALID,95.6434,VALID,0,VALID,18.0679,VALID,131,VALID,0.109766,
2014-01-24, 02:33:04,VALID,917.385,VALID,0,VALID,95.7044,VALID,0,VALID,18.0874,VALID,131,VALID,0.337109,
2014-01-24, 02:34:04,VALID,917.393,VALID,0,VALID,95.7272,VALID,0,VALID,18.0874,VALID,135,VALID,0.639844,
2014-01-24, 02:35:04,VALID,917.364,VALID,0,VALID,95.8416,VALID,0,VALID,18.1459,VALID,155,VALID,0.780078,
2014-01-24, 02:36:04,VALID,917.352,VALID,0,VALID,95.8797,VALID,0,VALID,18.164,VALID,170,VALID,0.615625,
2014-01-24, 02:37:04,VALID,917.401,VALID,0,VALID,95.9178,VALID,0,VALID,18.2238,VALID,172,VALID,0.258984,
2014-01-24, 02:38:04,VALID,917.385,VALID,0,VALID,95.9254,VALID,0,VALID,18.203,VALID,175,VALID,0.696484,
2014-01-24, 02:39:04,VALID,917.368,VALID,0,VALID,95.9102,VALID,0,VALID,18.2433,VALID,172,VALID,1.08359,
2014-01-24, 02:40:04,VALID,917.356,VALID,0,VALID,95.895,VALID,0,VALID,18.2433,VALID,170,VALID,0.512109,
2014-01-24, 02:41:04,VALID,917.353,VALID,0,VALID,95.8721,VALID,0,VALID,18.2225,VALID,170,VALID,0.848437,
2014-01-24, 02:42:04,VALID,917.293,VALID,0,VALID,95.8797,VALID,0,VALID,18.242,VALID,170,VALID,1.05352,
2014-01-24, 02:43:04,VALID,917.277,VALID,0,VALID,95.8721,VALID,0,VALID,18.2628,VALID,170,VALID,0.581641,
2014-01-24, 02:44:04,VALID,917.259,VALID,0,VALID,95.8797,VALID,0,VALID,18.2823,VALID,167,VALID,1.01406,
2014-01-24, 02:45:04,VALID,917.228,VALID,0,VALID,95.8492,VALID,0,VALID,18.2823,VALID,160,VALID,0.726563,
2014-01-24, 02:46:04,VALID,917.21,VALID,0,VALID,95.8263,VALID,0,VALID,18.2615,VALID,160,VALID,0.689844,
2014-01-24, 02:47:04,VALID,917.183,VALID,0,VALID,95.7806,VALID,0,VALID,18.2628,VALID,160,VALID,0.591406,
2014-01-24, 02:48:04,VALID,917.175,VALID,0,VALID,95.7196,VALID,0,VALID,18.2225,VALID,160,VALID,0.609375,
2014-01-24, 02:49:04,VALID,917.14,VALID,0,VALID,95.7044,VALID,0,VALID,18.2628,VALID,153,VALID,0.714063,
2014-01-24, 02:50:04,VALID,917.149,VALID,0,VALID,95.7196,VALID,0,VALID,18.3018,VALID,155,VALID,0.929688,
2014-01-24, 02:51:04,VALID,917.158,VALID,0,VALID,95.7425,VALID,0,VALID,18.2809,VALID,144,VALID,0.564453,
2014-01-24, 02:52:04,VALID,917.11,VALID,0,VALID,95.6586,VALID,0,VALID,18.2809,VALID,140,VALID,0.708984,
2014-01-24, 02:53:04,VALID,917.078,VALID,0,VALID,95.6205,VALID,0,VALID,18.2823,VALID,133,VALID,0.700781,
2014-01-24, 02:54:04,VALID,917.09,VALID,0,VALID,95.59,VALID,0,VALID,18.2809,VALID,133,VALID,0.357812,
2014-01-24, 02:55:04,VALID,917.133,VALID,0,VALID,95.5519,VALID,0,VALID,18.2823,VALID,136,VALID,0.746875,
2014-01-24, 02:56:04,VALID,917.121,VALID,0,VALID,95.5214,VALID,0,VALID,18.2615,VALID,135,VALID,0.795313,
2014-01-24, 02:57:04,VALID,917.093,VALID,0,VALID,95.5062,VALID,0,VALID,18.2823,VALID,136,VALID,0.71875,
2014-01-24, 02:58:04,VALID,917.105,VALID,0,VALID,95.4604,VALID,0,VALID,18.242,VALID,136,VALID,0.454688,
2014-01-24, 02:59:04,VALID,917.085,VALID,0,VALID,95.3994,VALID,0,VALID,18.242,VALID,136,VALID,0.415234,
2014-01-24, 03:00:04,VALID,917.089,VALID,0,VALID,95.3613,VALID,0,VALID,18.2433,VALID,143,VALID,0.658984,
2014-01-24, 03:01:04,VALID,917.072,VALID,0,VALID,95.3156,VALID,0,VALID,18.2238,VALID,168,VALID,0.706641,
2014-01-24, 03:02:04,VALID,917.058,VALID,0,VALID,95.3232,VALID,0,VALID,18.1626,VALID,167,VALID,1.08477,
2014-01-24, 03:03:04,VALID,917.054,VALID,0,VALID,95.3079,VALID,0,VALID,18.1835,VALID,172,VALID,1.24727,
2014-01-24, 03:04:04,VALID,917.064,VALID,0,VALID,95.3308,VALID,0,VALID,18.2044,VALID,167,VALID,0.419531,
2014-01-24, 03:05:04,VALID,917.067,VALID,0,VALID,95.3994,VALID,0,VALID,18.1626,VALID,167,VALID,0.73125,
2014-01-24, 03:06:04,VALID,917.051,VALID,0,VALID,95.4299,VALID,0,VALID,18.203,VALID,167,VALID,0.471875,
2014-01-24, 03:07:04,VALID,917.043,VALID,0,VALID,95.3842,VALID,0,VALID,18.1849,VALID,167,VALID,0.352344,
2014-01-24, 03:08:04,VALID,917.052,VALID,0,VALID,95.3079,VALID,0,VALID,18.1041,VALID,167,VALID,0.565625,
2014-01-24, 03:09:04,VALID,917.06,VALID,0,VALID,95.3308,VALID,0,VALID,18.1264,VALID,167,VALID,0.223047,
2014-01-24, 03:10:04,VALID,917.04,VALID,0,VALID,95.3613,VALID,0,VALID,18.0846,VALID,167,VALID,0.298047,
2014-01-24, 03:11:04,VALID,917.061,VALID,0,VALID,95.3994,VALID,0,VALID,18.0846,VALID,167,VALID,0.340625,
2014-01-24, 03:12:04,VALID,917.055,VALID,0,VALID,95.4604,VALID,0,VALID,18.1236,VALID,173,VALID,0.144922,
2014-01-24, 03:13:04,VALID,917.032,VALID,0,VALID,95.4757,VALID,0,VALID,18.125,VALID,173,VALID,0.618359,
2014-01-24, 03:14:04,VALID,917.052,VALID,0,VALID,95.4833,VALID,0,VALID,18.1055,VALID,173,VALID,0.616406,
2014-01-24, 03:15:04,VALID,917.045,VALID,0,VALID,95.4757,VALID,0,VALID,18.1055,VALID,164,VALID,0.650391,
2014-01-24, 03:16:04,VALID,917.024,VALID,0,VALID,95.5367,VALID,0,VALID,18.1667,VALID,168,VALID,1.05742,
2014-01-24, 03:17:04,VALID,917.055,VALID,0,VALID,95.6053,VALID,0,VALID,18.1654,VALID,168,VALID,0.329297,
2014-01-24, 03:18:04,VALID,917.018,VALID,0,VALID,95.6281,VALID,0,VALID,18.1236,VALID,169,VALID,0.838672,
2014-01-24, 03:19:04,VALID,917.044,VALID,0,VALID,95.6053,VALID,0,VALID,18.1445,VALID,171,VALID,0.985547,
2014-01-24, 03:20:04,VALID,917.043,VALID,0,VALID,95.5976,VALID,0,VALID,18.1445,VALID,176,VALID,0.675,
2014-01-24, 03:21:05,VALID,917.018,VALID,0,VALID,95.529,VALID,0,VALID,18.125,VALID,172,VALID,0.557422,
2014-01-24, 03:22:05,VALID,917.019,VALID,0,VALID,95.5138,VALID,0,VALID,18.125,VALID,172,VALID,0.824219,
2014-01-24, 03:23:05,VALID,917.016,VALID,0,VALID,95.5138,VALID,0,VALID,18.125,VALID,168,VALID,0.863281,
2014-01-24, 03:24:05,VALID,917.02,VALID,0,VALID,95.529,VALID,0,VALID,18.125,VALID,170,VALID,1.03906,
2014-01-24, 03:25:05,VALID,917.011,VALID,0,VALID,95.5214,VALID,0,VALID,18.1041,VALID,165,VALID,0.953906,
2014-01-24, 03:26:05,VALID,917.004,VALID,0,VALID,95.5443,VALID,0,VALID,18.125,VALID,176,VALID,0.944922,
2014-01-24, 03:27:05,VALID,917.02,VALID,0,VALID,95.4909,VALID,0,VALID,18.125,VALID,158,VALID,0.655859,
2014-01-24, 03:28:05,VALID,916.988,VALID,0,VALID,95.4375,VALID,0,VALID,18.1069,VALID,155,VALID,0.871484,
2014-01-24, 03:29:05,VALID,916.956,VALID,0,VALID,95.3918,VALID,0,VALID,18.0665,VALID,155,VALID,0.917969,
2014-01-24, 03:30:05,VALID,916.985,VALID,0,VALID,95.3994,VALID,0,VALID,18.0665,VALID,142,VALID,1.00547,
2014-01-24, 03:31:05,VALID,916.967,VALID,0,VALID,95.4071,VALID,0,VALID,18.0665,VALID,142,VALID,0.736328,
2014-01-24, 03:32:05,VALID,916.984,VALID,0,VALID,95.4528,VALID,0,VALID,18.0679,VALID,142,VALID,0.473047,
2014-01-24, 03:33:05,VALID,916.975,VALID,0,VALID,95.4604,VALID,0,VALID,18.047,VALID,142,VALID,0.669531,
2014-01-24, 03:34:05,VALID,916.992,VALID,0,VALID,95.4452,VALID,0,VALID,18.0275,VALID,142,VALID,0.837891,
2014-01-24, 03:35:05,VALID,916.992,VALID,0,VALID,95.4985,VALID,0,VALID,18.0679,VALID,142,VALID,0.66875,
2014-01-24, 03:36:05,VALID,917.006,VALID,0,VALID,95.5214,VALID,0,VALID,18.0665,VALID,142,VALID,0.790625,
2014-01-24, 03:37:05,VALID,917.013,VALID,0,VALID,95.529,VALID,0,VALID,18.0679,VALID,142,VALID,0.433984,
2014-01-24, 03:38:05,VALID,917.009,VALID,0,VALID,95.4909,VALID,0,VALID,18.0679,VALID,142,VALID,0.301562,
2014-01-24, 03:39:05,VALID,916.974,VALID,0,VALID,95.4452,VALID,0,VALID,18.0275,VALID,142,VALID,0.774609,
2014-01-24, 03:40:05,VALID,916.962,VALID,0,VALID,95.4452,VALID,0,VALID,18.0275,VALID,142,VALID,0.745313,
2014-01-24, 03:41:05,VALID,916.938,VALID,0,VALID,95.4223,VALID,0,VALID,18.0289,VALID,142,VALID,0.719531,
2014-01-24, 03:42:05,VALID,916.941,VALID,0,VALID,95.4452,VALID,0,VALID,18.008,VALID,142,VALID,0.747656,
2014-01-24, 03:43:05,VALID,916.91,VALID,0,VALID,95.4528,VALID,0,VALID,17.9886,VALID,142,VALID,0.752734,
2014-01-24, 03:44:05,VALID,916.868,VALID,0,VALID,95.4604,VALID,0,VALID,17.9691,VALID,142,VALID,0.810938,
2014-01-24, 03:45:05,VALID,916.87,VALID,0,VALID,95.5062,VALID,0,VALID,17.9691,VALID,142,VALID,1.30234,